Regional Weather Roundup
Issued by NWS Green Bay, WI

Home | Current Version | Previous Version | Text Only | Print | Product List | Glossary On
Versions: 1 2 3 4 5 6 7 8 9 10 11 12 13 14 15 16 17 18 19 20 21 22 23 24 25 26 27 28 29 30 31 32 33 34 35 36 37 38 39 40 41 42 43 44 45 46 47 48 49 50
000
ASUS43 KGRB 192159
RWRGRB

NORTH-CENTRAL AND NORTHEAST WISCONSIN REGIONAL WEATHER ROUNDUP
NATIONAL WEATHER SERVICE GREEN BAY WI
500 PM CDT FRI SEP 19 2014

WIZ005-009-010>012-018-019-192300-
NORTH CENTRAL WISCONSIN

CITY           SKY/WX    TMP DP  RH WIND       PRES   REMARKS
IRONWOOD       CLOUDY    66  55  68 S9        29.68F
MANITOWISH WTR NOT AVBL
ARBOR VITAE    NOT AVBL
EAGLE RIVER    NOT AVBL
LAND O LAKES   NOT AVBL
RHINELANDER    PTSUNNY   66  52  60 SW10G29   29.77F
PHILLIPS       NOT AVBL
ANTIGO         NOT AVBL
TOMAHAWK       NOT AVBL
MERRILL        NOT AVBL
$$

WIZ013-073-192300-
NORTHEAST WISCONSIN

CITY           SKY/WX    TMP DP  RH WIND       PRES   REMARKS
IRON MOUNTAIN  PTSUNNY   67  51  56 S13G26    29.77F
MARINETTE      PTSUNNY   68  55  64 S15G24    29.83F
$$

WIZ017-030-035>037-045-192300-
CENTRAL WISCONSIN

CITY           SKY/WX    TMP DP  RH WIND       PRES   REMARKS
MEDFORD        NOT AVBL
WAUSAU         MOSUNNY   69  53  56 S22       29.77F
MOSINEE        MOSUNNY   70  54  56 S24G32    29.80F
MARSHFIELD     MOSUNNY   71  54  54 S25G36    29.77F
WISC RAPIDS    MOSUNNY   73  53  49 S16G36    29.82F
STEVENS POINT  NOT AVBL
WAUPACA        NOT AVBL
SHAWANO        NOT AVBL
CLINTONVILLE   NOT AVBL
$$

WIZ038-039-048-051-192300-
FOX VALLEY

CITY           SKY/WX    TMP DP  RH WIND       PRES   REMARKS
NWS GREEN BAY  MOSUNNY   72  51  47 S16G28    29.87F
APPLETON       PTSUNNY   72  48  43 S22       29.89F
OSHKOSH        MOSUNNY   71  50  47 S23G30    29.89F
FOND DU LAC    MOSUNNY   72  49  44 S22       29.91F
$$

WIZ022-050-052-192300-
EAST CENTRAL WISCONSIN

CITY           SKY/WX    TMP DP  RH WIND       PRES   REMARKS
STURGEON BAY   PTSUNNY   61  54  77 S22G33    29.89R
MANITOWOC      NOT AVBL
SHEBOYGAN      MOSUNNY   66  52  60 S17G31    29.94F
$$

LMZ563-521-522-541>543-192300-
LAKESHORE

STATION/POSITION TIME  TEMP    WIND        PRES    VSBY  WAVE
                       AIR SEA DIR/SP/G                  HT/PER
                 (UTC) (F)     (DEG/KT/KT) (MB)    (MI)  (FT/S)
SHEBOYGAN LKSHOR 2100   58 55  180/ 20/ 20 1014.5F
KEWAUNEE LKSHORE 2100   58     180/ 18/ 22 1012.5F
TWO RIVERS CG    2100   58 61              1014.1      6   3
NORTHPORT PIER   2100   61     170/ 12/ 21 1012.2F
N MID LAKE BUOY  2100   60 58  190/ 25/ 29 1012.4F         6/ 7
S GREEN BAY BUOY 2100   65     VRB 16/ 19  1012.5F
STURGEON BAY CG  2100   58 55  180/ 16     1014.1      6   5
CHAMBERS ISLAND  2100   63     150/  9/ 20 1011.2F
MENOMINEE LKSHOR 2100   63     160/ 14/ 22 1011.5F
$$


USA.gov is the U.S. government's official web portal to all federal, state and local government web resources and services.